This demonstration page uses our WeatherBlox Daily Observations layout. Learn more.

Left ArrowRight Arrow

47.50024, -111.30081

Hourly Observations for January 12, 2016

Temp ( °F °C ) Dew Point ( °F °C ) Humidity (%) Winds ( mph kmh ) Pressure ( in mb ) Visibility ( mi km ) Precip ( " mm )
12:53 am 00:53 Clear 31 -0.6 22 -5.6 69 69 SW 31 50 30.09 1019 10 16 0.00 0.00
1:53 am 01:53 Clear 31 -0.6 21 -6.1 67 67 SW 25 41 30.12 1020 10 16 0.00 0.00
2:53 am 02:53 Clear 30 -1.1 22 -5.6 72 72 SSW 21 33 30.15 1021 10 16 0.00 0.00
3:53 am 03:53 Clear 31 -0.6 23 -5 72 72 SW 30 48 30.09 1019 10 16 0.00 0.00
4:53 am 04:53 Clear 32 0 24 -4.4 73 73 SSW 28 44 30.07 1018 10 16 0.00 0.00
5:53 am 05:53 Clear 32 0 23 -5 69 69 SW 21 33 30.09 1019 10 16 0.00 0.00
6:53 am 06:53 Clear 31 -0.6 23 -5 72 72 SW 16 26 30.10 1019 10 16 0.00 0.00
7:53 am 07:53 Cloudy 34 1.1 24 -4.4 67 67 SW 15 24 30.11 1020 10 16 0.00 0.00
8:53 am 08:53 Mostly Sunny 31 -0.6 23 -5 72 72 SW 14 22 30.11 1020 10 16 0.00 0.00
9:53 am 09:53 Sunny 34 1.1 23 -5 64 64 SW 18 30 30.12 1020 10 16 0.00 0.00
10:53 am 10:53 Sunny 36 2.2 25 -3.9 64 64 WSW 17 28 30.10 1019 10 16 0.00 0.00
11:53 am 11:53 Sunny 38 3.3 26 -3.3 62 62 WSW 17 28 30.09 1019 10 16 0.00 0.00
12:53 pm 12:53 Sunny 38 3.3 27 -2.8 65 65 SW 20 31 30.08 1019 10 16 0.00 0.00
1:53 pm 13:53 Sunny 39 3.9 26 -3.3 60 60 WSW 21 33 30.06 1018 10 16 0.00 0.00
2:53 pm 14:53 Sunny 37 2.8 26 -3.3 65 65 WSW 15 24 30.08 1019 10 16 0.00 0.00
3:53 pm 15:53 Sunny 34 1.1 25 -3.9 70 70 SSW 10 17 30.09 1019 10 16 0.00 0.00
4:53 pm 16:53 Sunny 33 0.6 23 -5 66 66 SSW 16 26 30.09 1019 10 16 0.00 0.00
5:53 pm 17:53 Clear 36 2.2 24 -4.4 62 62 SW 15 24 30.06 1018 10 16 0.00 0.00
6:53 pm 18:53 Clear 36 2.2 25 -3.9 64 64 SW 20 31 30.03 1017 10 16 0.00 0.00
7:53 pm 19:53 Clear 37 2.8 26 -3.3 65 65 SW 22 35 30.00 1016 10 16 0.00 0.00
8:53 pm 20:53 Clear 37 2.8 25 -3.9 62 62 SW 24 39 29.98 1015 10 16 0.00 0.00
9:53 pm 21:53 Clear 37 2.8 25 -3.9 62 62 SW 25 41 29.94 1014 10 16 0.00 0.00
10:53 pm 22:53 Clear 35 1.7 25 -3.9 67 67 SSW 14 22 29.93 1014 10 16 0.00 0.00
11:53 pm 23:53 Clear 35 1.7 26 -3.3 70 70 SSW 17 28 29.91 1013 10 16 0.00 0.00

Powered by AerisWeather